Regional Weather Roundup
Issued by NWS Charleston, SC

Current Version | Previous Version | Graphics & Text | Print | Product List | Glossary On
Versions: 1 2 3 4 5 6 7 8 9 10 11 12 13 14 15 16 17 18 19 20 21 22 23 24 25 26 27 28 29 30 31 32 33 34 35 36 37 38 39 40 41 42 43 44 45 46 47 48 49 50
000
ASUS42 KCHS 231012
RWRCHS

Regional Weather Roundup
National Weather Service Charleston SC
600 AM EDT MON APR 23 2018

NOTE: "fair" indicates few or no clouds below 12,000 feet with no
significant weather and/or obstructions to visibility.

Not all stations are quality controlled. Use data with caution,
especially dewpoint observations.

SCZ027-030-031-034>040-042>050-231100-
...Southeast South Carolina...

CITY           SKY/WX    TMP DP  RH WIND       PRES   REMARKS
N Charleston   MOCLDY    65  60  84 E12       30.13F
Waterfront Prk   N/A     65  62  90 E15       29.98F
Mount Pleasant PTSUNNY   64  61  88 E5        30.14R
Johns Island   CLOUDY    64  61  88 E14G21    30.12F
Pinopolis      NOT AVBL
Moncks Corner  RAIN      59  57  94 E7        30.15S
Summerville    LGT RAIN  61  59  94 E6        30.13F
Beaufort MCAS  RAIN      65  62  90 E13       30.08F FOG
Beaufort Arpt  LGT RAIN  63  61  94 E15G22    30.09S
Hilton Head Is DRIZZLE   64  63  94 E10G21    30.08F
Walterboro     PTSUNNY   61  59  94 E7        30.12S
Allendale      CLOUDY    61  61 100 VRB6      30.07F

...Southern Midlands and Pee Dee...

CITY           SKY/WX    TMP DP  RH WIND       PRES   REMARKS
Georgetown     PTSUNNY   61  61 100 E15       30.18F
Kingstree      FAIR      57  55  94 E7        30.18R
Orangeburg     CLOUDY    59  54  83 E10G17    30.12F
Barnwell       LGT RAIN  59  57  94 E13       30.08F
Aiken          RAIN      55  55 100 E10       30.13R
Manning        CLOUDY    54  52  94 E5        30.17R
Columbia       LGT RAIN  58  56  93 E12       30.13S
Sumter         MOCLDY    58  52  79 E9        30.15R
Florence       CLOUDY    57  53  86 E12       30.20F
Myrtle Beach   CLOUDY    62  57  83 E13G20    30.22F
N Myrtle Beach LGT RAIN  63  54  72 E12G22    30.22F

$$

GAZ063-065-086>088-099>101-113>116-118-119-134>141-150-231100-
...Southeast Georgia...

CITY           SKY/WX    TMP DP  RH WIND       PRES   REMARKS
Savannah Arpt  CLOUDY    66  63  90 E16G26    30.04F
Hunter AAF     MOCLDY    66  62  88 E16       30.01F
Fort Stewart   LGT RAIN  65  62  90 E10       30.00F
Statesboro     LGT RAIN  64  32  30 E9G17     30.03F
Sylvania       DRIZZLE   63  63 100 SE9       30.06S
Claxton        RAIN      65  63  93 E10       30.02F

...CSRA, Central and far Southeast Georgia...

CITY           SKY/WX    TMP DP  RH WIND       PRES   REMARKS
Thomson        RAIN      59  57  95 S13G21    30.07F FOG
Augusta-Bush   LGT RAIN  60  58  92 E12       30.05F
Augusta-Daniel LGT RAIN  61  58  90 E15G24    30.06F
Swainsboro     RAIN      63  63 100 SE12G21   30.01S
Vidalia        RAIN      63  63 100 E14G20    30.00R
Eastman        RAIN      65  58  77 SE8       30.01S
Hazlehurst     LGT RAIN  66  62  89 SW5       29.99S
Alma           LGT RAIN  67  64  90 E6        29.99S
Waycross       DRIZZLE   68  65  90 SE7       29.99S
Jesup          HVY RAIN  66  64  94 CALM      30.02R
Baxley         HVY RAIN  63  63 100 S5G17     30.00R
Brunswick      LGT RAIN  68  63  83 E14G20    30.00S
Saint Simons   LGT RAIN  69  67  93 SE17G24   29.99F FOG

$$

SCZ027-028-034-036>038-045-046-048>050-GAZ119-141-231100-
...Lake and Supplemental Coastal Observations...

STATION/POSITION TIME  TEMP    WIND        PRES    WAVE   SWELL
                       AIR SEA DIR/SP/G            HT/PER HT/PER/DIR
                 (UTC) (F)     (DEG/KT/KT) (MB)    (FT/S) (FT/S/D)
Winyah Bay       0845   64      80/ 11     1023.0
Lake Murray      0920   58      70/ 11/ 16 1020.0F
ACE Basin NERRS  0845   65     350/  5       N/A
Fort Pulaski     0936   67 65  110/ 19/ 24 1018.0F
Sapelo Island    0900   67     100/ 13     1016.0

$$

ANZ835-935-AMZ111-154-330-350-352-354-370-450-454-472-231100-
...C-MAN and Buoy Observations...

STATION/POSITION TIME  TEMP    WIND        PRES    WAVE   SWELL
                       AIR SEA DIR/SP/G            HT/PER HT/PER/DIR
                 (UTC) (F)     (DEG/KT/KT) (MB)    (FT/S) (FT/S/D)
Buoy 41004       0950   69 67  110/ 19/ 25 1020.6F   8/ 7
Buoy 41008       0950   67 65  100/ 21/ 23 1015.4F   8/ 9   3/130/ 9
Folly Beach CMAN NOT AVBL
Capers Nearshore 0908   65 63  100/ 16/ 21 1020.7F
Fripp Nearshore  0908   65 64  100/ 16/ 25 1018.3F


STATION/POSITION TIME  TEMP    WIND        PRES    WAVE   SWELL
                       AIR SEA DIR/SP/G            HT/PER HT/PER/DIR
                 (UTC) (F)     (DEG/KT/KT) (MB)    (FT/S) (FT/S/D)
5E St. Marys GA  0930      66                N/A     7/ 8   2/ 90/11
Frying Pan Buoy  0950   68 70  100/ 19/ 23 1023.9R   6/ 5   2/ 60/15
Buoy 41025       1000   66 72  100/ 14/ 17 1027.6
Cape Lookout NC  NOT AVBL
Buoy 41002       0950   68 72  100/ 17/ 21 1023.9F   4/ 6   2/130/ 8
Buoy 41010       0950   74 75  110/ 21/ 27 1018.5R   8/ 7   2/150/12
St Augustine FL  1000   70 69  160/ 13/ 13 1015.9F


$$




USA.gov is the U.S. government's official web portal to all federal, state and local government web resources and services.